Printer-friendly version

IAU Minor Planet Center

Minor Planet Center

MPEC 2008-F37 : 2008 FE

The following Minor Planet Electronic Circular may be linked-to from your own Web pages, but must not otherwise be redistributed electronically.


Read MPEC 2008-F36 Read MPEC 2008-F38


M.P.E.C. 2008-F37                                Issued 2008 Mar. 27, 15:08 UT

     The Minor Planet Electronic Circulars contain information on unusual
         minor planets and routine data on comets.  They are published
   on behalf of Commission 20 of the International Astronomical Union by the
          Minor Planet Center, Smithsonian Astrophysical Observatory,
                          Cambridge, MA 02138, U.S.A.

             Prepared using the Tamkin Foundation Computer Network

                              MPC@CFA.HARVARD.EDU
          URL http://www.cfa.harvard.edu/iau/mpc.html  ISSN 1523-6714

                                    2008 FE

Observations:
     K08F00E* C2008 03 26.20223 08 16 39.32 +19 20 41.9          20.6 V EF037G96
     K08F00E  C2008 03 26.21060 08 16 44.25 +19 21 55.5          21.1 V EF037G96
     K08F00E  C2008 03 26.21902 08 16 49.18 +19 23 10.3          20.5 V EF037G96
     K08F00E  C2008 03 26.22738 08 16 54.19 +19 24 23.5          20.9 V EF037G96
     K08F00E  C2008 03 26.26460 08 17 16.22 +19 29 48.6                 EF037G96
     K08F00E  C2008 03 26.26547 08 17 16.75 +19 29 57.1                 EF037G96
     K08F00E FC2008 03 27.02652 08 25 24.65 +21 22 05.9                 EF037J95
     K08F00E EC2008 03 27.03150 08 25 27.85 +21 22 48.7                 EF037J95
     K08F00E EC2008 03 27.03976 08 25 33.34 +21 24 01.1          20.8 R EF037J95
     K08F00E  C2008 03 27.11779 08 26 29.94 +21 36 21.1          21.5 V EF037G96
     K08F00E  C2008 03 27.12674 08 26 35.44 +21 37 40.7          20.9 V EF037G96
     K08F00E  C2008 03 27.13579 08 26 41.02 +21 39 01.0          21.9 V EF037G96
     K08F00E  C2008 03 27.14483 08 26 46.60 +21 40 21.2          21.2 V EF037G96

Observer details:
G96 Mt. Lemmon Survey.  Observer R. A. Kowalski.  Measurers E. C. Beshore,
    A. Boattini, G. J. Garradd, A. R. Gibbs, A. D. Grauer, R. E. Hill,
    R. A. Kowalski, S. M. Larson, R. H. McNaught.  1.5-m reflector + CCD.
J95 Great Shefford.  Observer P. Birtwhistle.  0.40-m f/6.0 Schmidt-Cassegrain
    + CCD.

Orbital elements:
2008 FE                                                  Earth MOID = 0.0448 AU
Epoch 2008 May 14.0 TT = JDT 2454600.5                  MPC
M  20.32549              (2000.0)            P               Q
n   0.36831113     Peri.  352.69082     -0.99459131     -0.10371251
a   1.9274931      Node   181.39410     +0.10310642     -0.97930155
e   0.4610310      Incl.   13.41220     +0.01253783     -0.17381656
P   2.68           H   24.1           G   0.15           U   9
Residuals in seconds of arc
080326 G96  0.7+  0.5-    080326 G96  1.2-  0.5+    080327 G96  0.4+  0.0
080326 G96  0.6+  0.4-    080327 J95  0.6-  0.7+    080327 G96  0.6-  0.5-
080326 G96  0.1-  0.5+    080327 J95  0.8-  0.2-    080327 G96  1.5-  0.9-
080326 G96  0.8+  0.3+    080327 J95  1.1+  0.2-
080326 G96  1.3-  0.4-    080327 G96  1.7+  0.3+

Ephemeris:
2008 FE                  a,e,i = 1.93, 0.46, 13                  q = 1.0389
Date    TT    R. A. (2000) Decl.     Delta      r     Elong.  Phase     V
2008 03 25    08 04.70   +16 25.3    0.0935   1.041   115.2    60.2    21.2
2008 03 30    09 01.09   +28 37.7    0.0893   1.045   119.3    56.4    21.0
2008 04 04    10 12.79   +38 41.8    0.0941   1.053   122.1    53.6    21.0
2008 04 09    11 28.23   +44 05.3    0.107    1.064   123.3    51.9    21.3
2008 04 14    12 32.26   +45 22.7    0.125    1.078   123.7    50.8    21.6
2008 04 19    13 19.43   +44 26.2    0.148    1.094   124.0    49.6    22.0
2008 04 24    13 52.43   +42 34.2    0.172    1.112   124.4    48.2    22.3

Sonia Keys                   (C) Copyright 2008 MPC           M.P.E.C. 2008-F37

Read MPEC 2008-F36 Read MPEC 2008-F38


Our Web policy. Index to the CBAT/MPC/ICQ pages.


Valid HTML 4.01!